| time (UTC) | temp C | wind direction | speed KPH | gust KPH | rain 1hr cm | rain 24hr cm | rain mn cm | humidity % | barometer mb |
| 20260505212726 | 15 | 185 | 0.0 | 1.6 | 0.00 | 0.00 | 0.00 | 75 | 1018.2 |
| 20260505212224 | 15 | 61 | 1.6 | 3.2 | 0.00 | 0.00 | 0.00 | 76 | 1018.2 |
| 20260505211721 | 15 | 108 | 0.0 | 1.6 | 0.00 | 0.00 | 0.00 | 78 | 1018.2 |
| 20260505211218 | 14 | 103 | 1.6 | 4.8 | 0.00 | 0.00 | 0.00 | 78 | 1018.2 |
| 20260505210714 | 15 | 72 | 3.2 | 4.8 | 0.00 | 0.00 | 0.00 | 77 | 1018.2 |
| 20260505210211 | 15 | 53 | 3.2 | 4.8 | 0.00 | 0.00 | 0.00 | 78 | 1018.2 |
| 20260505205709 | 14 | 56 | 1.6 | 3.2 | 0.00 | 0.00 | 0.00 | 79 | 1018.2 |
| 20260505205207 | 13 | 85 | 3.2 | 3.2 | 0.00 | 0.00 | 0.00 | 81 | 1018.2 |
| 20260505204703 | 13 | 59 | 1.6 | 3.2 | 0.00 | 0.00 | 0.00 | 79 | 1018.2 |
| 20260505204201 | 14 | 2 | 1.6 | 1.6 | 0.00 | 0.00 | 0.00 | 79 | 1018.5 |
| 20260505203658 | 14 | 98 | 0.0 | 0.0 | 0.00 | 0.00 | 0.00 | 80 | 1018.2 |
| 20260505203154 | 13 | 69 | 1.6 | 3.2 | 0.00 | 0.00 | 0.00 | 81 | 1018.2 |
| 20260505202650 | 13 | 94 | 0.0 | 1.6 | 0.00 | 0.00 | 0.00 | 81 | 1018.2 |
| 20260505202147 | 13 | 86 | 1.6 | 3.2 | 0.00 | 0.00 | 0.00 | 81 | 1018.2 |
| 20260505201643 | 13 | 290 | 1.6 | 3.2 | 0.00 | 0.00 | 0.00 | 82 | 1018.2 |
| 20260505201141 | 13 | 317 | 1.6 | 4.8 | 0.00 | 0.00 | 0.00 | 81 | 1018.2 |
| 20260505200639 | 13 | 62 | 1.6 | 1.6 | 0.00 | 0.00 | 0.00 | 83 | 1017.9 |
| 20260505200136 | 12 | 82 | 1.6 | 3.2 | 0.00 | 0.00 | 0.00 | 84 | 1018.2 |
| 20260505195632 | 12 | 10 | 3.2 | 4.8 | 0.00 | 0.00 | 0.00 | 84 | 1018.2 |
| 20260505195129 | 12 | 67 | 1.6 | 4.8 | 0.00 | 0.00 | 0.00 | 84 | 1018.2 |
| 20260505194626 | 12 | 83 | 3.2 | 3.2 | 0.00 | 0.00 | 0.00 | 85 | 1018.2 |
| 20260505194122 | 12 | 63 | 3.2 | 3.2 | 0.00 | 0.00 | 0.00 | 86 | 1018.2 |
| 20260505193619 | 12 | 9 | 3.2 | 4.8 | 0.00 | 0.00 | 0.00 | 86 | 1018.2 |
| 20260505193116 | 12 | 77 | 1.6 | 3.2 | 0.00 | 0.00 | 0.00 | 86 | 1018.2 |
| 20260505192615 | 12 | 35 | 1.6 | 4.8 | 0.00 | 0.00 | 0.00 | 86 | 1018.2 |
| 20260505192112 | 12 | 14 | 3.2 | 3.2 | 0.00 | 0.00 | 0.00 | 87 | 1018.2 |
| 20260505191610 | 12 | 17 | 3.2 | 4.8 | 0.00 | 0.00 | 0.00 | 87 | 1018.2 |
| 20260505191107 | 12 | 27 | 3.2 | 4.8 | 0.00 | 0.00 | 0.00 | 87 | 1018.2 |
| 20260505190603 | 12 | 31 | 1.6 | 3.2 | 0.00 | 0.00 | 0.00 | 88 | 1018.2 |
| 20260505190058 | 12 | 43 | 0.0 | 3.2 | 0.00 | 0.00 | 0.00 | 88 | 1018.2 |
| 20260505185555 | 12 | 54 | 1.6 | 6.4 | 0.00 | 0.00 | 0.00 | 87 | 1018.2 |
| 20260505185051 | 12 | 38 | 1.6 | 3.2 | 0.00 | 0.00 | 0.00 | 88 | 1018.2 |
| 20260505184548 | 12 | 152 | 0.0 | 3.2 | 0.00 | 0.00 | 0.00 | 88 | 1018.2 |
| 20260505184045 | 12 | 67 | 1.6 | 3.2 | 0.00 | 0.00 | 0.00 | 88 | 1018.2 |
| 20260505183542 | 12 | 104 | 1.6 | 3.2 | 0.00 | 0.00 | 0.00 | 87 | 1018.2 |
| 20260505183039 | 12 | 93 | 1.6 | 1.6 | 0.00 | 0.00 | 0.00 | 87 | 1017.9 |
| 20260505182535 | 12 | 101 | 1.6 | 4.8 | 0.00 | 0.00 | 0.00 | 87 | 1018.2 |
| 20260505182032 | 12 | 97 | 1.6 | 4.8 | 0.00 | 0.00 | 0.00 | 87 | 1017.9 |
| 20260505181529 | 12 | 94 | 1.6 | 3.2 | 0.00 | 0.00 | 0.00 | 87 | 1017.9 |
| 20260505181026 | 12 | 27 | 1.6 | 3.2 | 0.00 | 0.00 | 0.00 | 87 | 1018.2 |
| 20260505180522 | 12 | 97 | 1.6 | 1.6 | 0.00 | 0.00 | 0.00 | 87 | 1017.9 |
| 20260505180020 | 12 | 85 | 1.6 | 3.2 | 0.00 | 0.00 | 0.00 | 86 | 1017.9 |
| 20260505175515 | 12 | 358 | 0.0 | 3.2 | 0.00 | 0.00 | 0.00 | 85 | 1017.9 |
| 20260505175012 | 12 | 10 | 1.6 | 3.2 | 0.00 | 0.00 | 0.00 | 84 | 1017.9 |
| 20260505174509 | 12 | 103 | 3.2 | 4.8 | 0.00 | 0.00 | 0.00 | 84 | 1017.5 |
| 20260505174005 | 12 | 156 | 1.6 | 1.6 | 0.00 | 0.00 | 0.00 | 85 | 1017.9 |
| 20260505173501 | 12 | 101 | 3.2 | 6.4 | 0.00 | 0.00 | 0.00 | 86 | 1017.9 |
| 20260505172958 | 12 | 105 | 6.4 | 9.7 | 0.00 | 0.00 | 0.00 | 86 | 1017.9 |
| 20260505172456 | 12 | 113 | 1.6 | 4.8 | 0.00 | 0.00 | 0.00 | 86 | 1017.5 |
| 20260505171951 | 12 | 194 | 3.2 | 6.4 | 0.00 | 0.00 | 0.00 | 86 | 1017.5 |
| 20260505171447 | 12 | 175 | 4.8 | 11.3 | 0.00 | 0.00 | 0.00 | 86 | 1017.9 |
| 20260505170944 | 12 | 169 | 4.8 | 9.7 | 0.00 | 0.00 | 0.00 | 87 | 1017.9 |
| 20260505170441 | 12 | 122 | 3.2 | 9.7 | 0.00 | 0.00 | 0.00 | 87 | 1017.5 |
| 20260505165936 | 12 | 166 | 8.0 | 9.7 | 0.00 | 0.00 | 0.00 | 86 | 1017.5 |
| 20260505165432 | 12 | 154 | 1.6 | 3.2 | 0.00 | 0.00 | 0.00 | 87 | 1017.9 |
| 20260505164928 | 12 | 159 | 6.4 | 9.7 | 0.00 | 0.00 | 0.00 | 87 | 1017.9 |
| 20260505164425 | 12 | 167 | 1.6 | 3.2 | 0.00 | 0.00 | 0.00 | 88 | 1017.5 |
| 20260505163923 | 12 | 119 | 3.2 | 6.4 | 0.00 | 0.00 | 0.00 | 88 | 1017.5 |
| 20260505163422 | 12 | 160 | 3.2 | 6.4 | 0.00 | 0.00 | 0.00 | 88 | 1017.5 |
| 20260505162920 | 12 | 117 | 1.6 | 9.7 | 0.00 | 0.00 | 0.00 | 88 | 1017.5 |
| 20260505162415 | 12 | 126 | 4.8 | 4.8 | 0.00 | 0.00 | 0.00 | 88 | 1017.5 |
| 20260505161912 | 12 | 122 | 1.6 | 3.2 | 0.00 | 0.00 | 0.00 | 88 | 1017.5 |
| 20260505161409 | 12 | 152 | 3.2 | 6.4 | 0.00 | 0.00 | 0.00 | 89 | 1017.5 |
| 20260505160907 | 12 | 162 | 3.2 | 4.8 | 0.00 | 0.00 | 0.00 | 89 | 1017.5 |
| 20260505160405 | 12 | 151 | 3.2 | 6.4 | 0.00 | 0.00 | 0.00 | 89 | 1017.5 |
| 20260505153343 | 11 | 119 | 0.0 | 1.6 | 0.00 | 0.00 | 0.00 | 91 | 1017.2 |
| 20260505152840 | 11 | 110 | 0.0 | 1.6 | 0.00 | 0.00 | 0.00 | 91 | 1017.5 |
| 20260505152337 | 11 | 108 | 0.0 | 1.6 | 0.00 | 0.00 | 0.00 | 91 | 1017.2 |
| 20260505151832 | 11 | 106 | 0.0 | 0.0 | 0.00 | 0.00 | 0.00 | 91 | 1017.2 |
| 20260505151328 | 11 | 108 | 0.0 | 1.6 | 0.00 | 0.00 | 0.00 | 91 | 1017.2 |
| 20260505150825 | 11 | 95 | 0.0 | 1.6 | 0.00 | 0.00 | 0.00 | 91 | 1017.2 |
| 20260505150322 | 11 | 108 | 0.0 | 0.0 | 0.00 | 0.00 | 0.00 | 92 | 1017.2 |
| 20260505140247 | 11 | 115 | 0.0 | 0.0 | 0.00 | 0.00 | 0.00 | 92 | 1016.9 |
| 20260505130211 | 10 | 112 | 0.0 | 0.0 | 0.00 | 0.00 | 0.00 | 93 | 1015.8 |
| 20260505124701 | 10 | 97 | 0.0 | 0.0 | 0.00 | 0.00 | 0.00 | 93 | 1015.8 |
| 20260505124157 | 10 | 112 | 0.0 | 0.0 | 0.00 | 0.00 | 0.00 | 93 | 1015.8 |
| 20260505123653 | 10 | 112 | 0.0 | 0.0 | 0.00 | 0.00 | 0.00 | 93 | 1015.8 |
| 20260505123150 | 10 | 105 | 0.0 | 1.6 | 0.00 | 0.00 | 0.00 | 93 | 1015.8 |
| 20260505122647 | 10 | 89 | 0.0 | 0.0 | 0.00 | 0.00 | 0.00 | 93 | 1015.8 |
| 20260505122144 | 10 | 114 | 0.0 | 0.0 | 0.00 | 0.00 | 0.00 | 93 | 1015.8 |
| 20260505121641 | 10 | 81 | 1.6 | 1.6 | 0.00 | 0.00 | 0.00 | 94 | 1015.8 |
| 20260505121137 | 10 | 102 | 0.0 | 0.0 | 0.00 | 0.00 | 0.00 | 94 | 1015.5 |
| 20260505120633 | 10 | 152 | 1.6 | 3.2 | 0.00 | 0.00 | 0.00 | 94 | 1015.8 |
| 20260505120129 | 10 | 106 | 0.0 | 0.0 | 0.00 | 0.00 | 0.00 | 94 | 1015.8 |
| 20260505115624 | 10 | 112 | 0.0 | 0.0 | 0.00 | 0.00 | 0.00 | 94 | 1015.8 |
| 20260505115122 | 10 | 127 | 0.0 | 0.0 | 0.00 | 0.00 | 0.00 | 94 | 1015.5 |
| 20260505114618 | 10 | 115 | 0.0 | 0.0 | 0.00 | 0.00 | 0.00 | 94 | 1015.5 |
| 20260505114115 | 10 | 120 | 0.0 | 3.2 | 0.00 | 0.00 | 0.00 | 94 | 1015.5 |
| 20260505113611 | 10 | 175 | 1.6 | 3.2 | 0.00 | 0.00 | 0.00 | 94 | 1015.5 |
| 20260505113108 | 10 | 119 | 0.0 | 3.2 | 0.00 | 0.00 | 0.00 | 94 | 1015.5 |
| 20260505112604 | 10 | 134 | 4.8 | 6.4 | 0.00 | 0.00 | 0.00 | 94 | 1015.5 |
| 20260505112103 | 10 | 130 | 0.0 | 6.4 | 0.00 | 0.00 | 0.00 | 94 | 1015.2 |
| 20260505111601 | 10 | 142 | 3.2 | 4.8 | 0.00 | 0.00 | 0.00 | 94 | 1015.2 |
| 20260505111057 | 10 | 348 | 0.0 | 3.2 | 0.00 | 0.00 | 0.00 | 94 | 1015.5 |
| 20260505110554 | 10 | 348 | 0.0 | 0.0 | 0.00 | 0.00 | 0.00 | 94 | 1015.2 |
| 20260505102027 | 8 | 348 | 0.0 | 0.0 | 0.00 | 0.00 | 0.00 | 93 | 1015.2 |
| 20260505101525 | 8 | 348 | 0.0 | 0.0 | 0.00 | 0.00 | 0.00 | 93 | 1015.2 |
| 20260505101021 | 8 | 348 | 0.0 | 0.0 | 0.00 | 0.00 | 0.00 | 93 | 1015.2 |
| 20260505100518 | 8 | 348 | 0.0 | 0.0 | 0.00 | 0.00 | 0.00 | 93 | 1014.8 |
| 20260505100015 | 8 | 348 | 0.0 | 0.0 | 0.00 | 0.00 | 0.00 | 93 | 1015.2 |
| 20260505095511 | 9 | 348 | 0.0 | 0.0 | 0.00 | 0.00 | 0.00 | 92 | 1015.2 |
| 20260505095008 | 9 | 348 | 0.0 | 0.0 | 0.00 | 0.00 | 0.00 | 92 | 1015.2 |
| 20260505094504 | 9 | 348 | 0.0 | 0.0 | 0.00 | 0.00 | 0.00 | 92 | 1014.8 |
| 20260505094000 | 9 | 348 | 0.0 | 1.6 | 0.00 | 0.00 | 0.00 | 92 | 1014.8 |
| 20260505093457 | 9 | 348 | 0.0 | 1.6 | 0.00 | 0.00 | 0.00 | 92 | 1014.8 |
| 20260505092954 | 9 | 348 | 0.0 | 0.0 | 0.00 | 0.00 | 0.00 | 92 | 1014.8 |
| 20260505092452 | 10 | 348 | 0.0 | 0.0 | 0.00 | 0.00 | 0.00 | 92 | 1014.8 |
| 20260505091949 | 10 | 348 | 0.0 | 1.6 | 0.00 | 0.00 | 0.00 | 92 | 1014.8 |
| 20260505091447 | 10 | 347 | 0.0 | 1.6 | 0.00 | 0.00 | 0.00 | 92 | 1014.8 |
| 20260505090944 | 10 | 347 | 1.6 | 1.6 | 0.00 | 0.00 | 0.00 | 92 | 1014.8 |
| 20260505090443 | 10 | 347 | 0.0 | 1.6 | 0.00 | 0.00 | 0.00 | 92 | 1014.8 |
| 20260505085939 | 10 | 347 | 1.6 | 1.6 | 0.00 | 0.00 | 0.00 | 92 | 1014.8 |
| 20260505085437 | 10 | 347 | 0.0 | 1.6 | 0.00 | 0.00 | 0.00 | 91 | 1014.5 |
| 20260505084935 | 10 | 347 | 0.0 | 0.0 | 0.00 | 0.00 | 0.00 | 91 | 1014.8 |
| 20260505084434 | 10 | 347 | 0.0 | 0.0 | 0.00 | 0.00 | 0.00 | 91 | 1014.5 |
| 20260505083931 | 10 | 347 | 0.0 | 1.6 | 0.00 | 0.00 | 0.00 | 91 | 1014.5 |
| 20260505083428 | 10 | 347 | 0.0 | 1.6 | 0.00 | 0.00 | 0.00 | 91 | 1014.5 |
| 20260505082924 | 10 | 347 | 1.6 | 3.2 | 0.00 | 0.00 | 0.00 | 91 | 1014.5 |
| 20260505082420 | 10 | 347 | 1.6 | 1.6 | 0.00 | 0.00 | 0.00 | 91 | 1014.5 |
| 20260505081917 | 10 | 348 | 1.6 | 3.2 | 0.00 | 0.00 | 0.00 | 91 | 1014.5 |
| 20260505081414 | 10 | 348 | 1.6 | 1.6 | 0.00 | 0.00 | 0.00 | 91 | 1014.5 |
| 20260505080911 | 10 | 348 | 0.0 | 0.0 | 0.00 | 0.00 | 0.00 | 91 | 1014.5 |
| 20260505080407 | 10 | 348 | 1.6 | 1.6 | 0.00 | 0.00 | 0.00 | 91 | 1014.5 |
| 20260505075902 | 10 | 347 | 0.0 | 3.2 | 0.00 | 0.00 | 0.00 | 91 | 1014.5 |
| 20260505075359 | 10 | 348 | 0.0 | 3.2 | 0.00 | 0.00 | 0.00 | 90 | 1014.5 |
| 20260505074857 | 10 | 346 | 1.6 | 1.6 | 0.00 | 0.00 | 0.00 | 90 | 1014.5 |
| 20260505074354 | 10 | 346 | 0.0 | 1.6 | 0.00 | 0.00 | 0.00 | 90 | 1014.5 |
| 20260505073851 | 10 | 346 | 0.0 | 1.6 | 0.00 | 0.00 | 0.00 | 90 | 1014.5 |
| 20260505073349 | 10 | 346 | 0.0 | 0.0 | 0.00 | 0.00 | 0.00 | 90 | 1014.1 |
| 20260505072846 | 10 | 346 | 0.0 | 1.6 | 0.00 | 0.00 | 0.00 | 89 | 1014.1 |
| 20260505072342 | 10 | 346 | 0.0 | 0.0 | 0.00 | 0.00 | 0.00 | 89 | 1014.1 |
| 20260505071838 | 10 | 346 | 0.0 | 0.0 | 0.00 | 0.00 | 0.00 | 89 | 1014.1 |
| 20260505071334 | 10 | 346 | 0.0 | 0.0 | 0.00 | 0.00 | 0.00 | 89 | 1014.1 |
| 20260505070833 | 10 | 346 | 0.0 | 1.6 | 0.00 | 0.00 | 0.00 | 89 | 1014.1 |
| 20260505070329 | 10 | 346 | 1.6 | 1.6 | 0.00 | 0.00 | 0.00 | 88 | 1014.1 |
| 20260505065824 | 10 | 346 | 0.0 | 1.6 | 0.00 | 0.00 | 0.00 | 88 | 1014.1 |
| 20260505065321 | 10 | 346 | 1.6 | 4.8 | 0.00 | 0.00 | 0.00 | 88 | 1014.1 |
| 20260505064818 | 10 | 346 | 1.6 | 3.2 | 0.00 | 0.00 | 0.00 | 88 | 1013.8 |
| 20260505064315 | 10 | 346 | 1.6 | 3.2 | 0.00 | 0.00 | 0.00 | 88 | 1013.8 |
| 20260505063813 | 10 | 346 | 1.6 | 1.6 | 0.00 | 0.00 | 0.00 | 87 | 1013.8 |
| 20260505063309 | 10 | 346 | 1.6 | 3.2 | 0.00 | 0.00 | 0.00 | 87 | 1013.8 |
| 20260505062806 | 11 | 346 | 0.0 | 1.6 | 0.00 | 0.00 | 0.00 | 87 | 1013.8 |
| 20260505062304 | 11 | 347 | 1.6 | 1.6 | 0.00 | 0.00 | 0.00 | 86 | 1013.8 |
| 20260505061800 | 11 | 17 | 1.6 | 3.2 | 0.00 | 0.00 | 0.00 | 86 | 1013.8 |
| 20260505061258 | 11 | 91 | 1.6 | 3.2 | 0.00 | 0.00 | 0.00 | 86 | 1013.8 |
| 20260505060755 | 11 | 18 | 1.6 | 4.8 | 0.00 | 0.00 | 0.00 | 86 | 1013.8 |
| 20260505060252 | 11 | 112 | 0.0 | 1.6 | 0.00 | 0.00 | 0.00 | 85 | 1013.5 |
| 20260505055747 | 11 | 106 | 0.0 | 3.2 | 0.00 | 0.00 | 0.00 | 85 | 1013.5 |
| 20260505055245 | 11 | 5 | 3.2 | 4.8 | 0.00 | 0.00 | 0.00 | 84 | 1013.5 |
| 20260505054742 | 11 | 124 | 0.0 | 3.2 | 0.00 | 0.00 | 0.00 | 84 | 1013.5 |
| 20260505054239 | 11 | 82 | 1.6 | 1.6 | 0.00 | 0.00 | 0.00 | 84 | 1013.5 |
| 20260505053738 | 11 | 53 | 1.6 | 4.8 | 0.00 | 0.00 | 0.00 | 83 | 1013.5 |
| 20260505053234 | 11 | 112 | 1.6 | 1.6 | 0.00 | 0.00 | 0.00 | 83 | 1013.5 |
| 20260505052731 | 11 | 92 | 1.6 | 3.2 | 0.00 | 0.00 | 0.00 | 83 | 1013.5 |
| 20260505052228 | 11 | 75 | 0.0 | 1.6 | 0.00 | 0.00 | 0.00 | 83 | 1013.1 |
| 20260505051725 | 11 | 75 | 0.0 | 0.0 | 0.00 | 0.00 | 0.00 | 82 | 1013.1 |
| 20260505051223 | 11 | 154 | 0.0 | 1.6 | 0.00 | 0.00 | 0.00 | 82 | 1013.1 |
| 20260505050721 | 12 | 104 | 0.0 | 1.6 | 0.00 | 0.00 | 0.00 | 81 | 1013.1 |
| 20260505050219 | 12 | 113 | 0.0 | 1.6 | 0.00 | 0.00 | 0.00 | 81 | 1013.1 |
| 20260505041648 | 12 | 104 | 0.0 | 1.6 | 0.00 | 0.00 | 0.00 | 77 | 1012.5 |
| 20260505041146 | 13 | 121 | 0.0 | 3.2 | 0.00 | 0.00 | 0.00 | 77 | 1012.8 |
| 20260505040643 | 13 | 124 | 0.0 | 1.6 | 0.00 | 0.00 | 0.00 | 77 | 1012.8 |
| 20260505040140 | 13 | 154 | 0.0 | 1.6 | 0.00 | 0.00 | 0.00 | 76 | 1012.5 |
| 20260505035636 | 13 | 130 | 0.0 | 1.6 | 0.00 | 0.00 | 0.00 | 76 | 1012.5 |
| 20260505035132 | 13 | 36 | 1.6 | 3.2 | 0.00 | 0.00 | 0.00 | 75 | 1012.5 |
| 20260505034629 | 13 | 118 | 0.0 | 3.2 | 0.00 | 0.00 | 0.00 | 75 | 1012.5 |
| 20260505034126 | 13 | 113 | 0.0 | 3.2 | 0.00 | 0.00 | 0.00 | 75 | 1012.5 |
| 20260505033623 | 13 | 136 | 0.0 | 3.2 | 0.00 | 0.00 | 0.00 | 74 | 1012.1 |
| 20260505033121 | 14 | 86 | 1.6 | 3.2 | 0.00 | 0.00 | 0.00 | 73 | 1012.1 |
| 20260505032619 | 14 | 106 | 0.0 | 3.2 | 0.00 | 0.00 | 0.00 | 73 | 1012.5 |
| 20260505032115 | 14 | 102 | 1.6 | 3.2 | 0.00 | 0.00 | 0.00 | 73 | 1012.1 |
| 20260505031613 | 15 | 242 | 3.2 | 3.2 | 0.00 | 0.00 | 0.00 | 72 | 1012.1 |
| 20260505031108 | 15 | 173 | 0.0 | 3.2 | 0.00 | 0.00 | 0.00 | 71 | 1012.1 |
| 20260505030606 | 15 | 109 | 0.0 | 3.2 | 0.00 | 0.00 | 0.00 | 70 | 1012.1 |
| 20260505025557 | 15 | 188 | 1.6 | 9.7 | 0.00 | 0.00 | 0.00 | 69 | 1011.8 |
| 20260505025056 | 16 | 263 | 3.2 | 6.4 | 0.00 | 0.00 | 0.00 | 68 | 1011.8 |
| 20260505024553 | 16 | 280 | 1.6 | 3.2 | 0.00 | 0.00 | 0.00 | 67 | 1011.8 |
| 20260505024045 | 16 | 307 | 3.2 | 6.4 | 0.00 | 0.00 | 0.00 | 66 | 1011.3 |
| 20260505023542 | 16 | 218 | 4.8 | 6.4 | 0.00 | 0.00 | 0.00 | 66 | 1011.8 |
| 20260505023039 | 16 | 189 | 1.6 | 3.2 | 0.00 | 0.00 | 0.00 | 65 | 1011.8 |
| 20260505022536 | 16 | 163 | 0.0 | 11.3 | 0.00 | 0.00 | 0.00 | 64 | 1011.8 |
| 20260505022033 | 16 | 343 | 1.6 | 4.8 | 0.00 | 0.00 | 0.00 | 64 | 1011.8 |
| 20260505021529 | 17 | 116 | 1.6 | 4.8 | 0.00 | 0.00 | 0.00 | 63 | 1011.8 |
| 20260505021026 | 17 | 287 | 3.2 | 9.7 | 0.00 | 0.00 | 0.00 | 63 | 1012.1 |
| 20260505020520 | 17 | 120 | 1.6 | 12.9 | 0.00 | 0.00 | 0.00 | 63 | 1012.1 |
| 20260505020018 | 17 | 17 | 3.2 | 6.4 | 0.00 | 0.00 | 0.00 | 62 | 1012.1 |
| 20260505015515 | 17 | 84 | 3.2 | 4.8 | 0.00 | 0.00 | 0.00 | 61 | 1012.1 |
| 20260505015012 | 18 | 270 | 4.8 | 6.4 | 0.00 | 0.00 | 0.00 | 59 | 1012.1 |
| 20260505014509 | 19 | 160 | 1.6 | 12.9 | 0.00 | 0.00 | 0.00 | 58 | 1012.1 |
| 20260505014007 | 19 | 261 | 3.2 | 4.8 | 0.00 | 0.00 | 0.00 | 56 | 1012.1 |
| 20260505013503 | 18 | 345 | 1.6 | 11.3 | 0.00 | 0.00 | 0.00 | 57 | 1012.1 |
| 20260505013000 | 19 | 354 | 3.2 | 9.7 | 0.00 | 0.00 | 0.00 | 56 | 1012.1 |
| 20260505012459 | 20 | 225 | 1.6 | 6.4 | 0.00 | 0.00 | 0.00 | 55 | 1012.5 |
| 20260505011955 | 20 | 205 | 4.8 | 11.3 | 0.00 | 0.00 | 0.00 | 55 | 1012.1 |
| 20260505011451 | 20 | 358 | 3.2 | 16.1 | 0.00 | 0.00 | 0.00 | 55 | 1012.1 |
| 20260505010948 | 19 | 285 | 4.8 | 17.7 | 0.00 | 0.00 | 0.00 | 56 | 1012.5 |
| 20260505010444 | 20 | 38 | 4.8 | 12.9 | 0.00 | 0.00 | 0.00 | 54 | 1012.1 |
| 20260505005940 | 20 | 286 | 1.6 | 6.4 | 0.00 | 0.00 | 0.00 | 55 | 1012.5 |
| 20260505005437 | 20 | 104 | 6.4 | 14.5 | 0.00 | 0.00 | 0.00 | 54 | 1012.5 |
| 20260505004935 | 20 | 226 | 6.4 | 17.7 | 0.00 | 0.00 | 0.00 | 54 | 1012.1 |
| 20260505004431 | 20 | 102 | 1.6 | 6.4 | 0.00 | 0.00 | 0.00 | 54 | 1012.5 |
| 20260505003928 | 21 | 41 | 4.8 | 6.4 | 0.00 | 0.00 | 0.00 | 53 | 1012.5 |
| 20260505003425 | 21 | 258 | 1.6 | 12.9 | 0.00 | 0.00 | 0.00 | 54 | 1012.5 |
| 20260505002921 | 21 | 318 | 1.6 | 4.8 | 0.00 | 0.00 | 0.00 | 53 | 1012.1 |
| 20260505002418 | 21 | 346 | 8.0 | 11.3 | 0.00 | 0.00 | 0.00 | 51 | 1012.5 |
| 20260505001916 | 21 | 270 | 3.2 | 3.2 | 0.00 | 0.00 | 0.00 | 50 | 1012.5 |
| 20260505001413 | 21 | 337 | 6.4 | 11.3 | 0.00 | 0.00 | 0.00 | 52 | 1012.5 |
| 20260505000910 | 21 | 347 | 4.8 | 6.4 | 0.00 | 0.00 | 0.00 | 52 | 1012.5 |
| 20260505000408 | 21 | 321 | 9.7 | 11.3 | 0.00 | 0.00 | 0.00 | 52 | 1012.5 |
| 20260504235904 | 22 | 244 | 6.4 | 11.3 | 0.00 | 0.00 | 0.00 | 50 | 1012.5 |
| 20260504235402 | 22 | 39 | 3.2 | 11.3 | 0.00 | 0.00 | 0.00 | 51 | 1012.5 |
| 20260504234858 | 22 | 33 | 3.2 | 4.8 | 0.00 | 0.00 | 0.00 | 49 | 1012.5 |
| 20260504234356 | 21 | 63 | 3.2 | 9.7 | 0.00 | 0.00 | 0.00 | 50 | 1012.5 |
| 20260504233852 | 22 | 129 | 1.6 | 16.1 | 0.00 | 0.00 | 0.00 | 48 | 1012.5 |
| 20260504233348 | 23 | 114 | 1.6 | 4.8 | 0.00 | 0.00 | 0.00 | 45 | 1012.5 |
| 20260504232844 | 23 | 155 | 0.0 | 1.6 | 0.00 | 0.00 | 0.00 | 45 | 1012.5 |
| 20260504232342 | 22 | 243 | 1.6 | 3.2 | 0.00 | 0.00 | 0.00 | 47 | 1012.5 |
| 20260504231838 | 22 | 87 | 1.6 | 20.9 | 0.00 | 0.00 | 0.00 | 49 | 1012.5 |
| 20260504231335 | 21 | 100 | 0.0 | 11.3 | 0.00 | 0.00 | 0.00 | 50 | 1012.5 |
| 20260504230831 | 21 | 101 | 0.0 | 11.3 | 0.00 | 0.00 | 0.00 | 49 | 1012.5 |
| 20260504230329 | 21 | 86 | 3.2 | 12.9 | 0.00 | 0.00 | 0.00 | 51 | 1012.5 |
| 20260504225828 | 20 | 303 | 3.2 | 12.9 | 0.00 | 0.00 | 0.00 | 52 | 1012.5 |
| 20260504225324 | 21 | 249 | 6.4 | 11.3 | 0.00 | 0.00 | 0.00 | 51 | 1012.5 |
| 20260504224821 | 20 | 141 | 4.8 | 11.3 | 0.00 | 0.00 | 0.00 | 53 | 1012.5 |
| 20260504224318 | 21 | 101 | 1.6 | 9.7 | 0.00 | 0.00 | 0.00 | 52 | 1012.5 |
| 20260504223815 | 21 | 316 | 4.8 | 6.4 | 0.00 | 0.00 | 0.00 | 50 | 1012.5 |
| 20260504223310 | 21 | 335 | 3.2 | 11.3 | 0.00 | 0.00 | 0.00 | 51 | 1012.8 |
| 20260504222807 | 22 | 46 | 1.6 | 4.8 | 0.00 | 0.00 | 0.00 | 46 | 1012.5 |
| 20260504222305 | 23 | 191 | 4.8 | 6.4 | 0.00 | 0.00 | 0.00 | 43 | 1012.5 |
| 20260504221802 | 22 | 116 | 1.6 | 3.2 | 0.00 | 0.00 | 0.00 | 45 | 1012.8 |
| 20260504221259 | 23 | 106 | 1.6 | 3.2 | 0.00 | 0.00 | 0.00 | 43 | 1012.8 |
| 20260504220755 | 23 | 183 | 3.2 | 6.4 | 0.00 | 0.00 | 0.00 | 43 | 1012.8 |
| 20260504220252 | 22 | 270 | 3.2 | 6.4 | 0.00 | 0.00 | 0.00 | 44 | 1012.5 |
| 20260504215749 | 23 | 72 | 1.6 | 4.8 | 0.00 | 0.00 | 0.00 | 43 | 1012.8 |
| 20260504215245 | 23 | 129 | 1.6 | 1.6 | 0.00 | 0.00 | 0.00 | 42 | 1012.5 |
| 20260504214736 | 23 | 1 | 3.2 | 4.8 | 0.00 | 0.00 | 0.00 | 43 | 1012.8 |
| 20260504214233 | 24 | 217 | 3.2 | 9.7 | 0.00 | 0.00 | 0.00 | 41 | 1012.8 |
| 20260504213729 | 23 | 161 | 0.0 | 4.8 | 0.00 | 0.00 | 0.00 | 42 | 1012.8 |
| 20260504213225 | 23 | 305 | 9.7 | 11.3 | 0.00 | 0.00 | 0.00 | 41 | 1012.8 |